Location: Street
(51.1247°N, 2.7429°W)
Time: 09:44:11
(UTC+00:00)

Tiros 1 - Pass Details

Date: 02 December 2020
Orbit: 630 x 663 km, 48.4° (Epoch: 21 January)

Event Time Altitude Azimuth Distance (km) Brightness Sun altitude
Rises 18:08:12 0° 275° (W) 2,994 12.0 -18.2°
Reaches altitude 10° 18:10:35 10° 270° (W) 2,078 10.9 -18.5°
Maximum altitude 18:15:15 53° 195° (SSW) 812 7.7 -19.3°
Enters shadow 18:17:32 28° 131° (SE) 1,236 8.2 -19.6°
Drops below altitude 10° 18:19:52 10° 119° (ESE) 2,058 - -20.0°
Sets 18:22:14 0° 114° (ESE) 2,962 - -20.3°
